Garrison, ND

1:15 AM CDT on July 27, 2017 (GMT -0500)
Garrison

Weather History for KN60 - February, 2014

Change the Weather History Date:

Wednesday, February 26, 2014

  Actual Average Record
Temperature  
Mean Temperature 5 °F -  
Max Temperature 16 °F - 56 °F (2016)
Min Temperature -7 °F - -20 °F (2011)
Degree Days  
Heating Degree Days 60    
Month to date heating degree days 1512  
Cooling Degree Days 0    
Moisture  
Dew Point -4 °F    
Average Humidity 69    
Maximum Humidity 79    
Minimum Humidity 58    
Precipitation  
Precipitation 0.00 in - 0.27 in (2012)
Month to date precipitation 0.27  
Year to date precipitation 0.88  
Sea Level Pressure  
Sea Level Pressure 30.09 in    
Wind  
Wind Speed 19 mph (WNW)    
Max Wind Speed 36 mph    
Max Gust Speed 43 mph    
T = Trace of Precipitation, MM = Missing Value Source: NWS Daily Summary

Daily Weather History Graph

Daily Weather History Graph

Search for Another Location

Airport or City:

Trip Planner

Search our weather history database for the weather conditions in past years. The results will help you decide how hot, cold, wet, or windy it might be!

Date:

Astronomy

Feb. 26, 2014 Rise Set
Actual Time 7:31 AM CST 6:26 PM CST
Civil Twilight 7:00 AM CST 6:57 PM CST
Nautical Twilight 6:25 AM CST 7:32 PM CST
Astronomical Twilight 5:49 AM CST 8:08 PM CST
Moon 5:28 AM CST (2/26) 3:34 PM CST (2/26)
Length of Visible Light 11h 56m
Length of Day
10h 54m
Waning Crescent, 10% of the Moon is Illuminated
Feb 26
Waning Crescent
Mar 1
New
Mar 8
First Quarter
Mar 16
Full
Mar 23
Last Quarter

Hourly Weather History & Observations

Time (CST) Temp. Windchill Dew Point Humidity Pressure Visibility Wind Dir Wind Speed Gust Speed Precip Events Conditions
12:52 AM -5.1 °F -20.4 °F -11.0 °F 76% 30.33 in - West 8.1 mph - N/A   Unknown
1:52 AM -4.0 °F -17.8 °F -9.9 °F 76% 30.27 in - WSW 6.9 mph - N/A   Unknown
2:52 AM -2.9 °F -19.8 °F -9.0 °F 75% 30.22 in - WSW 10.4 mph - N/A   Unknown
3:52 AM -2.9 °F -17.7 °F -9.0 °F 75% 30.16 in - WSW 8.1 mph - N/A   Unknown
4:52 AM -0.0 °F -15.3 °F -7.1 °F 72% 30.10 in - West 9.2 mph - N/A   Unknown
5:52 AM 1.9 °F -15.5 °F -5.1 °F 72% 30.06 in - West 12.7 mph - N/A   Unknown
6:52 AM 3.0 °F -15.5 °F -4.0 °F 73% 30.02 in - West 15.0 mph - N/A   Unknown
7:52 AM 6.1 °F -14.8 °F -4.0 °F 63% 29.99 in - WNW 21.9 mph 32.2 mph N/A   Unknown
8:52 AM 8.1 °F -13.4 °F -2.9 °F 61% 29.97 in - West 25.3 mph 33.4 mph N/A   Unknown
9:52 AM 10.0 °F -10.4 °F -2.0 °F 58% 29.96 in - WNW 24.2 mph 36.8 mph 0.01 in   Unknown
10:52 AM 12.9 °F -8.6 °F -0.0 °F 56% 29.96 in - WNW 31.1 mph 39.1 mph N/A   Unknown
11:52 AM 15.1 °F -4.4 °F 3.0 °F 59% 29.97 in - NW 26.5 mph 34.5 mph N/A   Unknown
12:52 PM 16.0 °F -3.2 °F 5.0 °F 62% 29.99 in - NW 26.5 mph - N/A   Unknown
1:52 PM 15.1 °F -5.9 °F 5.0 °F 64% 29.99 in - NW 32.2 mph 39.1 mph N/A   Unknown
2:52 PM 14.0 °F -7.1 °F 3.9 °F 64% 30.01 in - NNW 31.1 mph 39.1 mph N/A   Unknown
3:52 PM 12.9 °F -7.3 °F 1.9 °F 62% 30.04 in - NNW 26.5 mph 33.4 mph N/A   Unknown
4:52 PM 10.9 °F -9.2 °F -0.0 °F 61% 30.07 in - NNW 24.2 mph 33.4 mph N/A   Unknown
5:52 PM 9.0 °F -11.0 °F -0.9 °F 64% 30.09 in - NNW 21.9 mph - N/A   Unknown
6:52 PM 5.0 °F -13.0 °F -2.9 °F 70% 30.13 in - NNW 15.0 mph - N/A   Unknown
7:52 PM 1.9 °F -16.2 °F -5.1 °F 72% 30.14 in - NNW 13.8 mph - N/A   Unknown
8:52 PM -0.9 °F -18.3 °F -7.1 °F 75% 30.16 in - NNW 11.5 mph - N/A   Unknown
9:52 PM -5.1 °F -20.4 °F -9.9 °F 80% 30.18 in - West 8.1 mph - N/A   Unknown
10:52 PM -5.1 °F -21.5 °F -9.9 °F 80% 30.19 in - NNW 9.2 mph - N/A   Unknown
11:52 PM -8.0 °F -21.0 °F -13.0 °F 79% 30.20 in - NNW 5.8 mph - N/A   Unknown